Location: ????
(30.2663°N, 31.2484°E)
Time: 01:56:36
(UTC+00:00)

Cosmos 2251 Rocket - Pass Details

Date: 27 September 2022
Orbit: 765 x 791 km, 74.0° (Epoch: 01 December)

Event Time Altitude Azimuth Distance (km) Brightness Sun altitude
Rises 02:43:56 0° 327° (NNW) 3,238 6.5 -14.2°
Reaches altitude 10° 02:46:44 10° 313° (NW) 2,305 5.6 -13.6°
Maximum altitude 02:50:47 23° 262° (W) 1,573 4.5 -12.7°
Drops below altitude 10° 02:54:49 10° 210° (SSW) 2,291 5.6 -11.9°
Sets 02:57:36 0° 196° (SSW) 3,213 6.5 -11.3°
